| time (UTC) | temp F | wind direction | speed MPH | gust MPH | rain 1hr in | rain 24hr in | rain mn in | humidity % | barometer mb |
| 20260502222022 | 55 | 0 | 0.0 | 0.0 | 0.00 | 0.44 | 0.44 | 95 | 1012.1 |
| 20260502221535 | 55 | 0 | 0.0 | 0.0 | 0.00 | 0.44 | 0.44 | 94 | 1012.1 |
| 20260502221023 | 55 | 0 | 0.0 | 0.0 | 0.00 | 0.44 | 0.44 | 94 | 1012.1 |
| 20260502220523 | 55 | 0 | 0.0 | 1.0 | 0.00 | 0.44 | 0.44 | 94 | 1012.0 |
| 20260502220035 | 55 | 0 | 0.0 | 1.0 | 0.01 | 0.44 | 0.44 | 94 | 1012.0 |
| 20260502215523 | 55 | 0 | 0.0 | 1.0 | 0.01 | 0.44 | 0.44 | 94 | 1011.9 |
| 20260502215023 | 55 | 0 | 0.0 | 2.0 | 0.01 | 0.44 | 0.44 | 94 | 1011.8 |
| 20260502214552 | 55 | 0 | 0.0 | 2.0 | 0.01 | 0.44 | 0.44 | 95 | 1011.8 |
| 20260502214023 | 55 | 134 | 0.0 | 0.0 | 0.01 | 0.44 | 0.44 | 95 | 1011.6 |
| 20260502213523 | 55 | 0 | 0.0 | 4.0 | 0.01 | 0.44 | 0.44 | 95 | 1011.7 |
| 20260502213040 | 56 | 0 | 0.0 | 4.0 | 0.01 | 0.44 | 0.44 | 96 | 1011.6 |
| 20260502212523 | 56 | 0 | 0.0 | 0.0 | 0.01 | 0.44 | 0.44 | 96 | 1011.6 |
| 20260502212024 | 56 | 0 | 0.0 | 0.0 | 0.01 | 0.44 | 0.44 | 96 | 1011.6 |
| 20260502211536 | 55 | 0 | 0.0 | 0.0 | 0.01 | 0.44 | 0.44 | 95 | 1011.7 |
| 20260502211024 | 56 | 0 | 0.0 | 0.0 | 0.01 | 0.44 | 0.44 | 95 | 1011.7 |
| 20260502210522 | 56 | 0 | 0.0 | 0.0 | 0.01 | 0.44 | 0.44 | 95 | 1011.7 |
| 20260502210037 | 56 | 0 | 0.0 | 1.0 | 0.00 | 0.43 | 0.43 | 95 | 1011.7 |
| 20260502205523 | 55 | 0 | 0.0 | 1.0 | 0.00 | 0.43 | 0.43 | 94 | 1011.9 |
| 20260502205025 | 55 | 0 | 0.0 | 0.0 | 0.00 | 0.43 | 0.43 | 95 | 1011.9 |
| 20260502204535 | 55 | 0 | 0.0 | 1.0 | 0.00 | 0.43 | 0.43 | 94 | 1011.9 |
| 20260502204023 | 55 | 0 | 0.0 | 3.0 | 0.00 | 0.43 | 0.43 | 94 | 1011.9 |
| 20260502203526 | 55 | 0 | 0.0 | 3.0 | 0.00 | 0.43 | 0.43 | 93 | 1011.8 |
| 20260502203042 | 56 | 0 | 0.0 | 3.0 | 0.00 | 0.43 | 0.43 | 93 | 1011.7 |
| 20260502202522 | 56 | 0 | 0.0 | 3.0 | 0.00 | 0.43 | 0.43 | 94 | 1011.8 |
| 20260502202022 | 56 | 0 | 0.0 | 3.0 | 0.00 | 0.43 | 0.43 | 94 | 1011.8 |
| 20260502201538 | 56 | 0 | 0.0 | 4.0 | 0.00 | 0.43 | 0.43 | 93 | 1011.7 |
| 20260502201023 | 56 | 48 | 0.0 | 4.0 | 0.00 | 0.43 | 0.43 | 94 | 1011.7 |
| 20260502200526 | 55 | 79 | 1.0 | 4.0 | 0.00 | 0.43 | 0.43 | 93 | 1011.8 |
| 20260502200034 | 55 | 0 | 0.0 | 4.0 | 0.00 | 0.43 | 0.43 | 95 | 1011.9 |
| 20260502195523 | 55 | 0 | 0.0 | 4.0 | 0.00 | 0.43 | 0.43 | 94 | 1011.8 |
| 20260502195022 | 55 | 0 | 0.0 | 4.0 | 0.00 | 0.43 | 0.43 | 94 | 1011.9 |
| 20260502194535 | 56 | 0 | 0.0 | 4.0 | 0.00 | 0.43 | 0.43 | 95 | 1011.7 |
| 20260502194025 | 55 | 0 | 0.0 | 6.0 | 0.00 | 0.43 | 0.43 | 95 | 1011.6 |
| 20260502193523 | 55 | 0 | 0.0 | 6.0 | 0.00 | 0.43 | 0.43 | 95 | 1011.5 |
| 20260502193035 | 55 | 286 | 0.0 | 5.0 | 0.00 | 0.43 | 0.43 | 96 | 1011.5 |
| 20260502192525 | 55 | 210 | 0.0 | 5.0 | 0.00 | 0.43 | 0.43 | 97 | 1011.6 |
| 20260502192022 | 55 | 0 | 0.0 | 3.0 | 0.00 | 0.43 | 0.43 | 97 | 1011.7 |
| 20260502191536 | 55 | 0 | 0.0 | 3.0 | 0.00 | 0.43 | 0.43 | 97 | 1011.7 |
| 20260502191028 | 55 | 0 | 0.0 | 2.0 | 0.00 | 0.43 | 0.43 | 97 | 1011.8 |
| 20260502190522 | 55 | 0 | 0.0 | 5.0 | 0.00 | 0.43 | 0.43 | 97 | 1011.9 |
| 20260502190042 | 55 | 0 | 0.0 | 5.0 | 0.00 | 0.43 | 0.43 | 97 | 1011.9 |
| 20260502185523 | 55 | 55 | 0.0 | 3.0 | 0.00 | 0.43 | 0.43 | 97 | 1011.7 |
| 20260502185022 | 55 | 0 | 0.0 | 2.0 | 0.00 | 0.43 | 0.43 | 97 | 1011.7 |
| 20260502184540 | 55 | 0 | 0.0 | 2.0 | 0.00 | 0.43 | 0.43 | 97 | 1011.9 |
| 20260502184022 | 55 | 0 | 0.0 | 2.0 | 0.00 | 0.43 | 0.43 | 97 | 1011.9 |
| 20260502183522 | 55 | 0 | 0.0 | 4.0 | 0.01 | 0.43 | 0.43 | 98 | 1012.0 |
| 20260502183033 | 55 | 0 | 0.0 | 4.0 | 0.02 | 0.43 | 0.43 | 97 | 1011.9 |
| 20260502182523 | 54 | 0 | 0.0 | 4.0 | 0.02 | 0.43 | 0.43 | 97 | 1012.0 |
| 20260502182021 | 55 | 0 | 0.0 | 2.0 | 0.03 | 0.43 | 0.43 | 98 | 1012.0 |
| 20260502181539 | 54 | 0 | 0.0 | 3.0 | 0.04 | 0.43 | 0.43 | 98 | 1012.1 |
| 20260502181022 | 55 | 0 | 0.0 | 3.0 | 0.04 | 0.43 | 0.43 | 98 | 1012.0 |
| 20260502180519 | 54 | 190 | 0.0 | 0.0 | 0.04 | 0.43 | 0.43 | 98 | 1012.0 |
| 20260502170520 | 54 | 0 | 0.0 | 1.0 | 0.00 | 0.39 | 0.39 | 98 | 1012.1 |
| 20260502164022 | 53 | 0 | 0.0 | 0.0 | 0.03 | 0.39 | 0.39 | 98 | 1012.9 |
| 20260502163522 | 53 | 0 | 0.0 | 2.0 | 0.04 | 0.39 | 0.39 | 98 | 1012.9 |
| 20260502163048 | 53 | 0 | 0.0 | 5.0 | 0.05 | 0.39 | 0.39 | 98 | 1012.9 |
| 20260502162522 | 53 | 300 | 0.0 | 5.0 | 0.06 | 0.39 | 0.39 | 98 | 1012.8 |
| 20260502162023 | 53 | 290 | 0.0 | 2.0 | 0.07 | 0.39 | 0.39 | 98 | 1012.9 |
| 20260502161534 | 53 | 0 | 0.0 | 3.0 | 0.08 | 0.39 | 0.39 | 98 | 1012.7 |
| 20260502161021 | 53 | 0 | 0.0 | 3.0 | 0.09 | 0.39 | 0.39 | 98 | 1012.5 |
| 20260502160525 | 53 | 0 | 0.0 | 3.0 | 0.10 | 0.39 | 0.39 | 98 | 1012.5 |
| 20260502152023 | 53 | 0 | 0.0 | 4.0 | 0.06 | 0.32 | 0.32 | 97 | 1013.5 |
| 20260502151552 | 53 | 0 | 0.0 | 4.0 | 0.06 | 0.31 | 0.31 | 97 | 1013.4 |
| 20260502151022 | 53 | 0 | 0.0 | 3.0 | 0.04 | 0.29 | 0.29 | 97 | 1013.3 |
| 20260502150521 | 53 | 0 | 0.0 | 3.0 | 0.05 | 0.29 | 0.29 | 98 | 1013.1 |
| 20260502130520 | 55 | 0 | 0.0 | 3.0 | 0.03 | 0.15 | 0.15 | 98 | 1012.1 |
| 20260502123522 | 56 | 0 | 0.0 | 2.0 | 0.02 | 0.13 | 0.13 | 98 | 1011.7 |
| 20260502123038 | 56 | 0 | 0.0 | 1.0 | 0.02 | 0.13 | 0.13 | 98 | 1011.6 |
| 20260502122525 | 56 | 0 | 0.0 | 1.0 | 0.02 | 0.13 | 0.13 | 98 | 1011.4 |
| 20260502122023 | 56 | 0 | 0.0 | 0.0 | 0.02 | 0.13 | 0.13 | 98 | 1011.5 |
| 20260502121535 | 56 | 0 | 0.0 | 1.0 | 0.03 | 0.13 | 0.13 | 98 | 1011.4 |
| 20260502121020 | 56 | 0 | 0.0 | 1.0 | 0.02 | 0.12 | 0.12 | 98 | 1011.4 |
| 20260502120526 | 56 | 0 | 0.0 | 1.0 | 0.02 | 0.12 | 0.12 | 98 | 1011.4 |
| 20260502115523 | 56 | 0 | 0.0 | 0.0 | 0.02 | 0.12 | 0.12 | 98 | 1011.5 |
| 20260502115023 | 56 | 0 | 0.0 | 0.0 | 0.03 | 0.12 | 0.12 | 98 | 1011.6 |
| 20260502114535 | 56 | 0 | 0.0 | 0.0 | 0.02 | 0.11 | 0.11 | 98 | 1011.5 |
| 20260502114022 | 56 | 0 | 0.0 | 0.0 | 0.02 | 0.11 | 0.11 | 98 | 1011.5 |
| 20260502113523 | 55 | 0 | 0.0 | 0.0 | 0.03 | 0.11 | 0.11 | 98 | 1011.5 |
| 20260502113035 | 55 | 0 | 0.0 | 0.0 | 0.03 | 0.11 | 0.11 | 98 | 1011.5 |
| 20260502112521 | 55 | 0 | 0.0 | 0.0 | 0.04 | 0.11 | 0.11 | 98 | 1011.5 |
| 20260502112022 | 55 | 0 | 0.0 | 0.0 | 0.04 | 0.11 | 0.11 | 98 | 1011.6 |
| 20260502111540 | 55 | 0 | 0.0 | 0.0 | 0.03 | 0.10 | 0.10 | 98 | 1011.6 |
| 20260502111023 | 55 | 0 | 0.0 | 0.0 | 0.04 | 0.10 | 0.10 | 98 | 1011.8 |
| 20260502110522 | 55 | 0 | 0.0 | 0.0 | 0.04 | 0.10 | 0.10 | 97 | 1011.8 |
| 20260502110035 | 55 | 0 | 0.0 | 0.0 | 0.04 | 0.10 | 0.10 | 97 | 1011.8 |
| 20260502105527 | 55 | 0 | 0.0 | 0.0 | 0.05 | 0.10 | 0.10 | 97 | 1011.9 |
| 20260502105021 | 55 | 0 | 0.0 | 0.0 | 0.04 | 0.09 | 0.09 | 97 | 1011.8 |
| 20260502104537 | 55 | 0 | 0.0 | 0.0 | 0.04 | 0.09 | 0.09 | 97 | 1012.0 |
| 20260502104038 | 55 | 0 | 0.0 | 0.0 | 0.03 | 0.08 | 0.08 | 97 | 1011.9 |
| 20260502103525 | 55 | 0 | 0.0 | 0.0 | 0.04 | 0.08 | 0.08 | 97 | 1011.8 |
| 20260502103035 | 55 | 0 | 0.0 | 0.0 | 0.04 | 0.08 | 0.08 | 97 | 1011.8 |
| 20260502102524 | 55 | 0 | 0.0 | 0.0 | 0.03 | 0.07 | 0.07 | 97 | 1011.7 |
| 20260502102022 | 55 | 0 | 0.0 | 0.0 | 0.04 | 0.07 | 0.07 | 97 | 1011.8 |
| 20260502101551 | 55 | 0 | 0.0 | 0.0 | 0.04 | 0.07 | 0.07 | 97 | 1011.9 |
| 20260502101023 | 55 | 0 | 0.0 | 0.0 | 0.03 | 0.06 | 0.06 | 97 | 1011.7 |
| 20260502100522 | 55 | 0 | 0.0 | 0.0 | 0.04 | 0.06 | 0.06 | 97 | 1011.7 |
| 20260502100103 | 55 | 0 | 0.0 | 0.0 | 0.04 | 0.06 | 0.06 | 97 | 1011.7 |
| 20260502091020 | 56 | 0 | 0.0 | 0.0 | 0.02 | 0.02 | 0.02 | 95 | 1011.7 |
| 20260502090521 | 56 | 0 | 0.0 | 0.0 | 0.02 | 0.02 | 0.02 | 95 | 1011.7 |
| 20260502071024 | 58 | 0 | 0.0 | 0.0 | 0.00 | 0.00 | 0.00 | 88 | 1011.3 |
| 20260502070523 | 58 | 0 | 0.0 | 0.0 | 0.00 | 0.00 | 0.00 | 88 | 1011.4 |
| 20260502070039 | 58 | 0 | 0.0 | 0.0 | 0.00 | 0.00 | 0.00 | 88 | 1011.4 |
| 20260502065521 | 58 | 0 | 0.0 | 0.0 | 0.00 | 0.00 | 0.00 | 88 | 1011.4 |
| 20260502065022 | 58 | 0 | 0.0 | 0.0 | 0.00 | 0.00 | 0.00 | 88 | 1011.5 |
| 20260502064535 | 58 | 0 | 0.0 | 0.0 | 0.00 | 0.00 | 0.00 | 88 | 1011.4 |
| 20260502064025 | 58 | 0 | 0.0 | 0.0 | 0.00 | 0.00 | 0.00 | 88 | 1011.5 |
| 20260502063523 | 58 | 0 | 0.0 | 0.0 | 0.00 | 0.00 | 0.00 | 88 | 1011.4 |
| 20260502063034 | 58 | 0 | 0.0 | 0.0 | 0.00 | 0.00 | 0.00 | 88 | 1011.3 |
| 20260502062522 | 58 | 0 | 0.0 | 0.0 | 0.00 | 0.00 | 0.00 | 88 | 1011.3 |
| 20260502062024 | 58 | 0 | 0.0 | 0.0 | 0.00 | 0.00 | 0.00 | 87 | 1011.5 |
| 20260502061540 | 58 | 0 | 0.0 | 0.0 | 0.00 | 0.00 | 0.00 | 87 | 1011.6 |
| 20260502061021 | 58 | 0 | 0.0 | 0.0 | 0.00 | 0.00 | 0.00 | 87 | 1011.7 |
| 20260502060523 | 58 | 0 | 0.0 | 0.0 | 0.00 | 0.00 | 0.00 | 87 | 1011.9 |
| 20260502060033 | 58 | 0 | 0.0 | 0.0 | 0.00 | 0.00 | 0.00 | 87 | 1012.0 |
| 20260502055521 | 58 | 0 | 0.0 | 0.0 | 0.00 | 0.02 | 0.00 | 88 | 1012.0 |
| 20260502055022 | 58 | 0 | 0.0 | 0.0 | 0.00 | 0.02 | 0.00 | 88 | 1011.9 |
| 20260502054534 | 58 | 0 | 0.0 | 0.0 | 0.00 | 0.02 | 0.00 | 88 | 1012.1 |
| 20260502054026 | 58 | 0 | 0.0 | 0.0 | 0.00 | 0.02 | 0.00 | 87 | 1012.2 |
| 20260502053523 | 58 | 0 | 0.0 | 0.0 | 0.00 | 0.02 | 0.00 | 88 | 1012.1 |
| 20260502053034 | 58 | 0 | 0.0 | 0.0 | 0.00 | 0.02 | 0.00 | 87 | 1012.1 |
| 20260502052522 | 58 | 0 | 0.0 | 0.0 | 0.00 | 0.02 | 0.00 | 88 | 1012.2 |
| 20260502052022 | 58 | 0 | 0.0 | 0.0 | 0.00 | 0.02 | 0.00 | 87 | 1012.2 |
| 20260502051534 | 58 | 0 | 0.0 | 0.0 | 0.00 | 0.02 | 0.00 | 88 | 1012.3 |
| 20260502051025 | 58 | 0 | 0.0 | 0.0 | 0.00 | 0.02 | 0.00 | 87 | 1012.2 |
| 20260502050534 | 58 | 0 | 0.0 | 0.0 | 0.00 | 0.02 | 0.00 | 88 | 1012.3 |
| 20260502050036 | 58 | 0 | 0.0 | 0.0 | 0.00 | 0.02 | 0.00 | 88 | 1012.4 |
| 20260502045522 | 58 | 0 | 0.0 | 0.0 | 0.00 | 0.02 | 0.00 | 88 | 1012.5 |
| 20260502045023 | 58 | 0 | 0.0 | 0.0 | 0.00 | 0.02 | 0.00 | 88 | 1012.5 |
| 20260502044534 | 58 | 0 | 0.0 | 0.0 | 0.00 | 0.02 | 0.00 | 88 | 1012.4 |
| 20260502044023 | 58 | 0 | 0.0 | 0.0 | 0.00 | 0.02 | 0.00 | 88 | 1012.3 |
| 20260502043522 | 58 | 0 | 0.0 | 0.0 | 0.00 | 0.02 | 0.00 | 88 | 1012.4 |
| 20260502043039 | 58 | 0 | 0.0 | 0.0 | 0.00 | 0.02 | 0.00 | 87 | 1012.5 |
| 20260502042522 | 59 | 0 | 0.0 | 0.0 | 0.00 | 0.02 | 0.00 | 87 | 1012.7 |
| 20260502042022 | 59 | 0 | 0.0 | 0.0 | 0.00 | 0.02 | 0.00 | 87 | 1012.7 |
| 20260502041535 | 59 | 0 | 0.0 | 0.0 | 0.00 | 0.02 | 0.00 | 86 | 1012.7 |
| 20260502041021 | 59 | 0 | 0.0 | 0.0 | 0.00 | 0.02 | 0.00 | 86 | 1012.6 |
| 20260502040523 | 59 | 0 | 0.0 | 0.0 | 0.00 | 0.02 | 0.00 | 86 | 1012.6 |
| 20260502040038 | 59 | 0 | 0.0 | 0.0 | 0.00 | 0.02 | 0.00 | 87 | 1012.7 |
| 20260502035520 | 59 | 0 | 0.0 | 0.0 | 0.00 | 0.02 | 0.02 | 86 | 1012.8 |
| 20260502035023 | 59 | 0 | 0.0 | 0.0 | 0.00 | 0.02 | 0.02 | 86 | 1012.8 |
| 20260502034536 | 59 | 0 | 0.0 | 0.0 | 0.00 | 0.02 | 0.02 | 87 | 1012.8 |
| 20260502034025 | 59 | 0 | 0.0 | 0.0 | 0.00 | 0.02 | 0.02 | 87 | 1012.9 |
| 20260502033519 | 59 | 0 | 0.0 | 0.0 | 0.00 | 0.02 | 0.02 | 87 | 1012.6 |
| 20260502033034 | 59 | 0 | 0.0 | 0.0 | 0.00 | 0.02 | 0.02 | 87 | 1012.9 |
| 20260502032522 | 59 | 0 | 0.0 | 0.0 | 0.00 | 0.02 | 0.02 | 87 | 1012.9 |
| 20260502032026 | 59 | 0 | 0.0 | 0.0 | 0.00 | 0.02 | 0.02 | 88 | 1012.8 |
| 20260502031539 | 59 | 0 | 0.0 | 0.0 | 0.00 | 0.02 | 0.02 | 88 | 1012.7 |
| 20260502031022 | 59 | 0 | 0.0 | 0.0 | 0.00 | 0.02 | 0.02 | 88 | 1012.7 |
| 20260502030522 | 59 | 0 | 0.0 | 0.0 | 0.00 | 0.02 | 0.02 | 88 | 1012.7 |
| 20260502030034 | 59 | 0 | 0.0 | 0.0 | 0.00 | 0.02 | 0.02 | 88 | 1012.7 |
| 20260502025523 | 59 | 0 | 0.0 | 0.0 | 0.00 | 0.02 | 0.02 | 88 | 1012.8 |
| 20260502025023 | 59 | 0 | 0.0 | 0.0 | 0.00 | 0.02 | 0.02 | 88 | 1012.9 |
| 20260502024533 | 59 | 0 | 0.0 | 0.0 | 0.00 | 0.02 | 0.02 | 89 | 1012.9 |
| 20260502024024 | 59 | 0 | 0.0 | 0.0 | 0.00 | 0.02 | 0.02 | 88 | 1012.9 |
| 20260502023523 | 59 | 0 | 0.0 | 0.0 | 0.00 | 0.02 | 0.02 | 88 | 1013.0 |
| 20260502023036 | 59 | 0 | 0.0 | 0.0 | 0.00 | 0.02 | 0.02 | 88 | 1012.9 |
| 20260502022520 | 59 | 0 | 0.0 | 0.0 | 0.00 | 0.02 | 0.02 | 88 | 1012.9 |
| 20260502022022 | 59 | 0 | 0.0 | 0.0 | 0.00 | 0.02 | 0.02 | 88 | 1012.8 |
| 20260502021535 | 59 | 0 | 0.0 | 0.0 | 0.00 | 0.02 | 0.02 | 89 | 1012.7 |
| 20260502021026 | 59 | 0 | 0.0 | 0.0 | 0.00 | 0.02 | 0.02 | 89 | 1012.6 |
| 20260502020523 | 59 | 0 | 0.0 | 0.0 | 0.00 | 0.02 | 0.02 | 89 | 1012.8 |
| 20260502020041 | 59 | 0 | 0.0 | 0.0 | 0.00 | 0.02 | 0.02 | 89 | 1012.7 |
| 20260502015523 | 59 | 0 | 0.0 | 0.0 | 0.00 | 0.02 | 0.02 | 89 | 1012.8 |
| 20260502015023 | 59 | 0 | 0.0 | 0.0 | 0.00 | 0.02 | 0.02 | 89 | 1012.7 |
| 20260502014534 | 59 | 0 | 0.0 | 0.0 | 0.00 | 0.02 | 0.02 | 89 | 1012.7 |
| 20260502014023 | 59 | 0 | 0.0 | 0.0 | 0.00 | 0.02 | 0.02 | 88 | 1012.6 |
| 20260502013523 | 59 | 0 | 0.0 | 0.0 | 0.00 | 0.02 | 0.02 | 88 | 1012.5 |
| 20260502013033 | 59 | 0 | 0.0 | 0.0 | 0.00 | 0.02 | 0.02 | 88 | 1012.5 |
| 20260502012523 | 59 | 0 | 0.0 | 0.0 | 0.00 | 0.02 | 0.02 | 88 | 1012.7 |
| 20260502012023 | 59 | 0 | 0.0 | 0.0 | 0.00 | 0.02 | 0.02 | 88 | 1012.5 |
| 20260502011540 | 59 | 0 | 0.0 | 0.0 | 0.00 | 0.02 | 0.02 | 87 | 1012.4 |
| 20260502011021 | 59 | 0 | 0.0 | 0.0 | 0.00 | 0.02 | 0.02 | 87 | 1012.7 |
| 20260502010523 | 60 | 0 | 0.0 | 0.0 | 0.00 | 0.02 | 0.02 | 87 | 1012.6 |
| 20260502010038 | 60 | 0 | 0.0 | 0.0 | 0.00 | 0.02 | 0.02 | 86 | 1012.6 |
| 20260502005523 | 60 | 0 | 0.0 | 0.0 | 0.00 | 0.02 | 0.02 | 86 | 1012.6 |
| 20260502005024 | 60 | 0 | 0.0 | 0.0 | 0.00 | 0.02 | 0.02 | 85 | 1012.4 |
| 20260502004536 | 60 | 0 | 0.0 | 0.0 | 0.00 | 0.02 | 0.02 | 85 | 1012.4 |
| 20260502004023 | 60 | 0 | 0.0 | 0.0 | 0.00 | 0.02 | 0.02 | 85 | 1012.1 |
| 20260502003522 | 60 | 0 | 0.0 | 0.0 | 0.00 | 0.02 | 0.02 | 83 | 1012.2 |
| 20260502003033 | 60 | 0 | 0.0 | 0.0 | 0.00 | 0.02 | 0.02 | 83 | 1012.1 |
| 20260502002522 | 61 | 0 | 0.0 | 0.0 | 0.00 | 0.02 | 0.02 | 83 | 1012.0 |
| 20260502002023 | 61 | 0 | 0.0 | 0.0 | 0.00 | 0.02 | 0.02 | 83 | 1012.0 |
| 20260502001535 | 61 | 0 | 0.0 | 0.0 | 0.00 | 0.02 | 0.02 | 83 | 1011.9 |
| 20260502001024 | 61 | 0 | 0.0 | 0.0 | 0.00 | 0.02 | 0.02 | 82 | 1011.9 |
| 20260502000523 | 61 | 0 | 0.0 | 0.0 | 0.00 | 0.02 | 0.02 | 82 | 1011.8 |
| 20260502000041 | 61 | 0 | 0.0 | 0.0 | 0.00 | 0.02 | 0.02 | 82 | 1011.6 |
| 20260501235523 | 61 | 0 | 0.0 | 0.0 | 0.00 | 0.02 | 0.02 | 80 | 1011.6 |
| 20260501235023 | 62 | 0 | 0.0 | 0.0 | 0.00 | 0.02 | 0.02 | 81 | 1011.7 |
| 20260501234536 | 62 | 0 | 0.0 | 0.0 | 0.00 | 0.02 | 0.02 | 81 | 1011.7 |
| 20260501234026 | 62 | 0 | 0.0 | 0.0 | 0.00 | 0.02 | 0.02 | 80 | 1011.8 |
| 20260501233522 | 62 | 0 | 0.0 | 0.0 | 0.00 | 0.02 | 0.02 | 79 | 1011.9 |
| 20260501233035 | 62 | 0 | 0.0 | 0.0 | 0.00 | 0.02 | 0.02 | 79 | 1011.9 |
| 20260501232522 | 63 | 0 | 0.0 | 0.0 | 0.00 | 0.02 | 0.02 | 78 | 1011.8 |
| 20260501232027 | 63 | 0 | 0.0 | 0.0 | 0.00 | 0.02 | 0.02 | 78 | 1011.9 |
| 20260501231540 | 63 | 0 | 0.0 | 0.0 | 0.00 | 0.02 | 0.02 | 79 | 1011.8 |
| 20260501231021 | 63 | 0 | 0.0 | 0.0 | 0.00 | 0.02 | 0.02 | 76 | 1011.9 |
| 20260501230522 | 63 | 0 | 0.0 | 0.0 | 0.00 | 0.02 | 0.02 | 78 | 1012.0 |
| 20260501230038 | 63 | 0 | 0.0 | 0.0 | 0.00 | 0.02 | 0.02 | 77 | 1012.0 |
| 20260501225522 | 64 | 0 | 0.0 | 0.0 | 0.00 | 0.02 | 0.02 | 75 | 1012.0 |
| 20260501225021 | 64 | 0 | 0.0 | 0.0 | 0.00 | 0.02 | 0.02 | 74 | 1012.2 |
| 20260501224539 | 64 | 0 | 0.0 | 0.0 | 0.00 | 0.02 | 0.02 | 75 | 1012.4 |
| 20260501224023 | 64 | 0 | 0.0 | 0.0 | 0.00 | 0.02 | 0.02 | 76 | 1012.2 |
| 20260501223523 | 64 | 0 | 0.0 | 0.0 | 0.00 | 0.02 | 0.02 | 74 | 1012.2 |
| 20260501223035 | 64 | 0 | 0.0 | 0.0 | 0.00 | 0.02 | 0.02 | 73 | 1012.2 |
| 20260501222524 | 65 | 0 | 0.0 | 0.0 | 0.00 | 0.02 | 0.02 | 72 | 1012.3 |